When you browse on this site, cookies collect data to enhance your experience and personalize the content and advertising you see.
Visit our Privacy Policy to learn more. By continuing to use the site, you agree to this use of cookies and data.
  • In Portugal
  • List of Countries
  • For 7 days
  • Water Temperature
  • Weather Map
  • Weather Widgets
  • user-avatar
    Login

    Hourly Weather Rodovoe

    Today, 25 January, Saturday

    Time Temperature Precipitation Wind Pressure Humidity
    00:00 +1°C° 0 mm 4 mps 744 mmHg 85%
    01:00 +1°C° 0 mm 4 mps 743 mmHg 85%
    02:00 +1°C° 0 mm 5 mps 743 mmHg 86%
    03:00 +1°C° 0 mm 5 mps 743 mmHg 82%
    04:00 +2°C° 0 mm 5 mps 742 mmHg 79%
    05:00 +2°C° 0 mm 5 mps 742 mmHg 76%
    06:00 +1°C° 0 mm 5 mps 742 mmHg 75%
    07:00 +1°C° 0 mm 5 mps 742 mmHg 74%
    08:00 +1°C° 0 mm 5 mps 742 mmHg 74%
    09:00 +1°C° 0 mm 5 mps 743 mmHg 68%
    10:00 +1°C° 0 mm 6 mps 743 mmHg 62%
    11:00 -1°C° 0 mm 6 mps 744 mmHg 56%
    12:00 -1°C° 0 mm 6 mps 744 mmHg 55%
    13:00 -1°C° 0 mm 6 mps 745 mmHg 55%
    14:00 -1°C° 0 mm 7 mps 745 mmHg 54%
    15:00 -1°C° 0 mm 6 mps 746 mmHg 57%
    16:00 -1°C° 0 mm 5 mps 746 mmHg 60%
    17:00 -2°C° 0 mm 5 mps 747 mmHg 63%
    18:00 -2°C° 0 mm 5 mps 747 mmHg 66%
    19:00 -2°C° 0 mm 4 mps 748 mmHg 68%
    20:00 -2°C° 0 mm 4 mps 748 mmHg 70%
    21:00 -2°C° 0 mm 4 mps 749 mmHg 72%
    22:00 -2°C° 0 mm 4 mps 750 mmHg 73%
    23:00 -3°C° 0 mm 4 mps 750 mmHg 75%

    Tomorrow, 26 January, Sunday

    Time Temperature Precipitation Wind Pressure Humidity
    00:00 -2°C° 0 mm 3 mps 751 mmHg 76%
    01:00 -2°C° 0 mm 3 mps 751 mmHg 77%
    02:00 -2°C° 0 mm 3 mps 751 mmHg 77%
    03:00 -2°C° 0 mm 3 mps 751 mmHg 76%
    04:00 -1°C° 0 mm 3 mps 751 mmHg 74%
    05:00 -1°C° 0 mm 3 mps 751 mmHg 72%
    06:00 -1°C° 0 mm 3 mps 751 mmHg 70%
    07:00 -1°C° 0 mm 4 mps 750 mmHg 69%
    08:00 -1°C° 0 mm 5 mps 750 mmHg 68%
    09:00 -1°C° 0 mm 5 mps 750 mmHg 73%
    10:00 -1°C° 0 mm 6 mps 750 mmHg 78%
    11:00 +1°C° 0 mm 6 mps 749 mmHg 83%
    12:00 +1°C° 0 mm 6 mps 749 mmHg 82%
    13:00 +2°C° 0 mm 6 mps 749 mmHg 82%
    14:00 +2°C° 0 mm 6 mps 749 mmHg 82%
    15:00 +2°C° 0 mm 6 mps 749 mmHg 83%
    16:00 +2°C° 0 mm 5 mps 749 mmHg 85%
    17:00 +2°C° 0 mm 5 mps 749 mmHg 86%
    18:00 +2°C° 0 mm 5 mps 749 mmHg 87%
    19:00 +2°C° 0 mm 5 mps 749 mmHg 87%
    20:00 +2°C° 0 mm 5 mps 750 mmHg 88%
    21:00 +3°C° 0 mm 4 mps 750 mmHg 88%
    22:00 +3°C° 0 mm 4 mps 750 mmHg 89%
    23:00 +3°C° 0 mm 4 mps 750 mmHg 90%

    Day after tomorrow, 27 January, Monday

    Time Temperature Precipitation Wind Pressure Humidity
    00:00 +3°C° 0 mm 4 mps 750 mmHg 90%
    01:00 +3°C° 0 mm 4 mps 750 mmHg 90%
    02:00 +3°C° 0 mm 4 mps 750 mmHg 91%
    03:00 +3°C° 0.1 mm 3 mps 750 mmHg 92%
    04:00 +2°C° 0.1 mm 3 mps 750 mmHg 92%
    05:00 +2°C° 0.1 mm 3 mps 750 mmHg 93%
    06:00 +3°C° 0.1 mm 3 mps 750 mmHg 94%
    07:00 +3°C° 0.1 mm 3 mps 750 mmHg 94%
    08:00 +3°C° 0.1 mm 3 mps 750 mmHg 95%
    09:00 +4°C° 0.3 mm 2 mps 750 mmHg 95%
    10:00 +4°C° 0.3 mm 2 mps 750 mmHg 95%
    11:00 +4°C° 0.3 mm 2 mps 750 mmHg 95%
    12:00 +4°C° 0.4 mm 2 mps 750 mmHg 96%
    13:00 +4°C° 0.4 mm 2 mps 750 mmHg 96%
    14:00 +4°C° 0.4 mm 2 mps 749 mmHg 96%
    15:00 +4°C° 0.2 mm 2 mps 749 mmHg 96%
    16:00 +3°C° 0.2 mm 2 mps 749 mmHg 96%
    17:00 +3°C° 0.2 mm 2 mps 749 mmHg 96%
    18:00 +3°C° 0.1 mm 2 mps 749 mmHg 96%
    19:00 +3°C° 0.1 mm 2 mps 749 mmHg 96%
    20:00 +3°C° 0.1 mm 2 mps 749 mmHg 96%
    21:00 +3°C° 0.1 mm 2 mps 749 mmHg 96%
    22:00 +4°C° 0.1 mm 1 mps 748 mmHg 96%
    23:00 +4°C° 0.1 mm 1 mps 748 mmHg 97%

    28 January, Tuesday

    Time Temperature Precipitation Wind Pressure Humidity
    00:00 +4°C° 0.1 mm 1 mps 748 mmHg 96%
    01:00 +4°C° 0.1 mm 1 mps 748 mmHg 96%
    02:00 +4°C° 0.1 mm 1 mps 747 mmHg 96%
    03:00 +3°C° 0 mm 2 mps 747 mmHg 95%
    04:00 +3°C° 0 mm 2 mps 747 mmHg 95%
    05:00 +3°C° 0 mm 2 mps 747 mmHg 95%
    06:00 +2°C° 0 mm 2 mps 747 mmHg 95%
    07:00 +2°C° 0 mm 2 mps 746 mmHg 95%
    08:00 +2°C° 0 mm 2 mps 746 mmHg 95%
    09:00 +2°C° 0 mm 2 mps 746 mmHg 93%
    10:00 +2°C° 0 mm 2 mps 746 mmHg 90%
    11:00 +1°C° 0 mm 3 mps 746 mmHg 88%
    12:00 +1°C° 0 mm 3 mps 745 mmHg 88%
    13:00 +2°C° 0 mm 3 mps 745 mmHg 88%
    14:00 +2°C° 0 mm 3 mps 745 mmHg 87%
    15:00 +2°C° 0 mm 3 mps 745 mmHg 90%
    16:00 +2°C° 0 mm 3 mps 744 mmHg 92%
    17:00 +1°C° 0 mm 3 mps 744 mmHg 94%
    18:00 +2°C° 0 mm 3 mps 744 mmHg 94%
    19:00 +2°C° 0 mm 3 mps 744 mmHg 93%
    20:00 +2°C° 0 mm 3 mps 743 mmHg 93%
    21:00 +2°C° 0.1 mm 3 mps 743 mmHg 93%
    22:00 +2°C° 0.1 mm 3 mps 743 mmHg 93%
    23:00 +1°C° 0.1 mm 4 mps 742 mmHg 93%

    29 January, Wednesday

    Time Temperature Precipitation Wind Pressure Humidity
    00:00 +1°C° 0.2 mm 4 mps 742 mmHg 94%
    01:00 +1°C° 0.2 mm 4 mps 741 mmHg 94%
    02:00 +1°C° 0.2 mm 4 mps 741 mmHg 94%
    03:00 +1°C° 0 mm 4 mps 741 mmHg 94%
    04:00 +1°C° 0 mm 4 mps 740 mmHg 93%
    05:00 +1°C° 0 mm 4 mps 740 mmHg 92%
    06:00 0°C° 0.1 mm 4 mps 739 mmHg 93%
    07:00 0°C° 0.1 mm 4 mps 739 mmHg 94%
    08:00 0°C° 0.1 mm 4 mps 739 mmHg 95%
    09:00 0°C° 0.2 mm 4 mps 738 mmHg 95%
    10:00 0°C° 0.2 mm 5 mps 738 mmHg 94%
    11:00 +1°C° 0.2 mm 5 mps 738 mmHg 93%
    12:00 +1°C° 0.1 mm 5 mps 737 mmHg 93%
    13:00 +1°C° 0.1 mm 4 mps 737 mmHg 93%
    14:00 +1°C° 0.1 mm 4 mps 737 mmHg 92%
    15:00 +1°C° 0.2 mm 4 mps 737 mmHg 94%
    16:00 0°C° 0.2 mm 4 mps 737 mmHg 95%
    17:00 +1°C° 0.2 mm 3 mps 736 mmHg 96%
    18:00 +1°C° 0.2 mm 3 mps 736 mmHg 96%
    19:00 +2°C° 0.2 mm 2 mps 736 mmHg 96%
    20:00 +3°C° 0.2 mm 2 mps 736 mmHg 96%
    21:00 +2°C° 0.3 mm 2 mps 736 mmHg 97%
    22:00 +2°C° 0.3 mm 2 mps 736 mmHg 97%
    23:00 +2°C° 0.3 mm 2 mps 736 mmHg 97%

    30 January, Thursday

    Time Temperature Precipitation Wind Pressure Humidity
    00:00 +2°C° 0.5 mm 2 mps 736 mmHg 97%
    01:00 +1°C° 0.5 mm 3 mps 736 mmHg 96%
    02:00 0°C° 0.5 mm 3 mps 736 mmHg 96%
    03:00 0°C° 0.9 mm 3 mps 736 mmHg 96%
    04:00 -1°C° 0.9 mm 4 mps 736 mmHg 96%
    05:00 -1°C° 0.9 mm 4 mps 736 mmHg 96%
    06:00 -2°C° 0.5 mm 4 mps 736 mmHg 94%
    07:00 -2°C° 0.5 mm 4 mps 736 mmHg 92%
    08:00 -2°C° 0.5 mm 4 mps 736 mmHg 90%
    09:00 -2°C° 0.2 mm 4 mps 737 mmHg 88%
    10:00 -1°C° 0.2 mm 4 mps 737 mmHg 87%
    11:00 0°C° 0.2 mm 3 mps 737 mmHg 85%
    12:00 0°C° 0 mm 3 mps 737 mmHg 83%
    13:00 0°C° 0 mm 3 mps 737 mmHg 81%
    14:00 0°C° 0 mm 3 mps 737 mmHg 79%
    15:00 +1°C° 0 mm 2 mps 737 mmHg 82%
    16:00 -1°C° 0 mm 2 mps 737 mmHg 85%
    17:00 -1°C° 0 mm 2 mps 738 mmHg 87%
    18:00 -2°C° 0 mm 2 mps 738 mmHg 88%
    19:00 -2°C° 0 mm 2 mps 738 mmHg 89%
    20:00 -2°C° 0 mm 2 mps 738 mmHg 89%
    21:00 -2°C° 0 mm 2 mps 738 mmHg 90%
    22:00 -1°C° 0 mm 1 mps 738 mmHg 90%
    23:00 -1°C° 0 mm 1 mps 739 mmHg 91%
    Show more